contact:dominique.lefevre@mio.osupytheas.fr, maurice.libes@osupytheas.fr, didier.mallarino@osupytheas.fr
Project:EMSO http://www.emso-fr.org/EMSO-France
Depth: 2436.0 m
Title:EMSO Ligure Ouest : Data MII capteur AQUADOPP
Date,Latitude,Longitude,X_East,Y_North,Z_Up,Amplitude_X,Amplitude_Y,Amplitude_Z,Batterie,SoundSpeed,Heading,Pitch,Roll,Pressure,TIS,Speed,Direction
, degrees North, degrees East, m.s-1, m.s-1,m.s-1, 1, 1, 1, Volt, m.s-1, degree, degree, degree, dbar, degree_C, m.s-1, degree
2019-06-14T00:09:04,42.805,6.029,0.055,0.007,-0.041,102.0,116.0,97.0,13.3,1505.2,323.5,-0.8,1.8,2470.084,13.29,0.055,82.7
2019-06-14T00:12:05,42.805,6.029,0.042,0.002,-0.03,101.0,114.0,98.0,13.4,1505.2,323.9,-0.7,1.9,2470.033,13.3,0.042,87.3
2019-06-14T00:15:06,42.805,6.029,0.043,0.013,-0.027,100.0,116.0,98.0,13.4,1505.3,324.0,-0.8,1.9,2470.074,13.31,0.044,73.2
2019-06-14T00:18:07,42.805,6.029,0.059,-0.001,-0.011,101.0,116.0,97.0,13.4,1505.3,323.8,-0.8,1.8,2470.05,13.31,0.059,91.0
2019-06-14T00:21:08,42.805,6.029,0.031,0.006,-0.003,99.0,114.0,98.0,13.3,1505.3,326.6,-0.7,1.9,2470.077,13.31,0.031,79.0
2019-06-14T00:24:09,42.805,6.029,0.047,-0.002,-0.033,102.0,116.0,97.0,13.4,1505.3,326.6,-0.7,1.8,2470.064,13.32,0.047,92.4
2019-06-14T00:27:10,42.805,6.029,0.047,-0.008,-0.028,101.0,116.0,99.0,13.4,1505.3,324.1,-0.7,1.9,2470.026,13.32,0.047,99.7
2019-06-14T00:30:11,42.805,6.029,0.039,0.029,-0.04,99.0,119.0,97.0,13.4,1505.3,326.3,-0.8,1.9,2470.145,13.32,0.048,53.4
2019-06-14T00:33:12,42.805,6.029,0.018,-0.002,-0.029,101.0,117.0,97.0,13.4,1505.3,327.8,-0.7,1.8,2470.078,13.32,0.018,96.3
2019-06-14T00:36:13,42.805,6.029,0.021,0.004,-0.027,101.0,117.0,98.0,13.4,1505.3,325.4,-0.7,1.8,2470.084,13.32,0.021,79.2
2019-06-14T00:39:14,42.805,6.029,0.026,0.0,-0.005,101.0,112.0,98.0,13.3,1505.3,326.2,-0.8,1.8,2470.052,13.32,0.026,90.0
2019-06-14T00:42:15,42.805,6.029,0.036,-0.021,-0.038,101.0,112.0,98.0,13.3,1505.3,325.9,-0.7,1.8,2470.055,13.32,0.041,120.3
2019-06-14T00:45:16,42.805,6.029,0.04,0.003,-0.02,101.0,115.0,97.0,13.4,1505.3,324.6,-0.7,1.9,2470.02,13.32,0.04,85.7
2019-06-14T00:48:17,42.805,6.029,0.04,0.001,-0.033,101.0,116.0,99.0,13.3,1505.3,324.6,-0.7,1.9,2470.04,13.32,0.04,88.6
2019-06-14T00:51:18,42.805,6.029,0.006,0.017,-0.024,101.0,117.0,97.0,13.4,1505.3,326.4,-0.8,1.8,2470.03,13.32,0.018,19.4
2019-06-14T00:54:19,42.805,6.029,0.027,-0.005,-0.023,101.0,118.0,98.0,13.3,1505.3,327.4,-0.8,1.8,2470.003,13.32,0.027,100.5
2019-06-14T00:57:20,42.805,6.029,0.045,0.004,-0.022,99.0,116.0,98.0,13.4,1505.3,324.8,-0.8,1.8,2470.076,13.32,0.045,84.9
2019-06-14T01:00:21,42.805,6.029,0.048,0.025,-0.031,101.0,113.0,98.0,13.3,1505.3,323.5,-0.7,1.9,2470.062,13.32,0.054,62.5
2019-06-14T01:03:22,42.805,6.029,0.05,-0.003,-0.022,102.0,114.0,98.0,13.4,1505.3,324.9,-0.7,1.8,2470.032,13.32,0.05,93.4
2019-06-14T01:06:23,42.805,6.029,0.052,-0.005,-0.028,100.0,114.0,97.0,13.4,1505.3,324.4,-0.7,1.8,2470.065,13.32,0.052,95.5
2019-06-14T01:09:24,42.805,6.029,0.066,0.011,-0.013,100.0,113.0,99.0,13.4,1505.3,327.3,-0.7,1.8,2470.039,13.32,0.066,80.5
2019-06-14T01:12:25,42.805,6.029,0.045,-0.004,-0.035,100.0,114.0,97.0,13.4,1505.3,323.3,-0.7,1.8,2470.061,13.32,0.045,95.1
2019-06-14T01:15:26,42.805,6.029,0.037,0.018,-0.025,101.0,114.0,98.0,13.4,1505.3,324.0,-0.7,1.8,2470.068,13.32,0.041,64.1
2019-06-14T01:18:27,42.805,6.029,0.05,0.0,-0.025,101.0,117.0,98.0,13.3,1505.3,323.2,-0.7,1.8,2470.054,13.32,0.05,90.0
2019-06-14T01:21:28,42.805,6.029,0.037,0.006,-0.032,101.0,114.0,97.0,13.4,1505.3,324.8,-0.7,1.8,2470.034,13.32,0.037,80.8
2019-06-14T01:24:29,42.805,6.029,0.062,0.003,-0.059,100.0,114.0,98.0,13.4,1505.3,325.2,-0.7,1.9,2470.074,13.32,0.062,87.2
2019-06-14T01:27:30,42.805,6.029,0.067,0.01,-0.027,100.0,115.0,97.0,13.3,1505.3,324.8,-0.8,1.8,2470.1,13.32,0.067,81.5
2019-06-14T01:30:31,42.805,6.029,0.038,0.0,-0.007,100.0,117.0,97.0,13.4,1505.3,325.7,-0.7,1.9,2470.058,13.32,0.038,90.0
2019-06-14T01:33:32,42.805,6.029,0.043,0.02,0.015,99.0,118.0,96.0,13.3,1505.3,323.9,-0.7,1.8,2470.111,13.32,0.047,65.1
2019-06-14T01:36:33,42.805,6.029,0.073,0.001,-0.034,102.0,114.0,98.0,13.4,1505.3,324.4,-0.7,1.9,2470.047,13.32,0.073,89.2
2019-06-14T01:39:34,42.805,6.029,0.027,0.012,-0.014,100.0,115.0,98.0,13.4,1505.3,324.1,-0.7,1.8,2470.038,13.32,0.029,66.0
2019-06-14T01:42:35,42.805,6.029,0.03,0.007,-0.044,101.0,116.0,98.0,13.4,1505.3,326.2,-0.7,1.8,2470.059,13.32,0.03,76.9
2019-06-14T01:45:36,42.805,6.029,0.017,-0.008,-0.045,101.0,118.0,99.0,13.4,1505.3,327.8,-0.7,1.8,2470.067,13.32,0.018,115.2
2019-06-14T01:48:37,42.805,6.029,0.044,0.025,-0.021,101.0,113.0,98.0,13.4,1505.3,323.2,-0.7,1.8,2470.05,13.32,0.05,60.4
2019-06-14T01:51:38,42.805,6.029,0.018,0.0,-0.002,101.0,117.0,98.0,13.3,1505.3,325.7,-0.7,1.8,2470.096,13.32,0.018,90.0
2019-06-14T01:54:39,42.805,6.029,0.048,0.009,-0.018,102.0,117.0,97.0,13.4,1505.3,323.2,-0.8,1.9,2470.113,13.32,0.048,79.4
2019-06-14T01:57:40,42.805,6.029,0.043,0.019,-0.025,101.0,117.0,98.0,13.4,1505.3,326.4,-0.7,1.9,2470.091,13.32,0.047,66.2
2019-06-14T02:00:41,42.805,6.029,0.043,0.009,-0.015,100.0,112.0,98.0,13.4,1505.3,326.2,-0.7,1.9,2470.103,13.32,0.043,78.2
2019-06-14T02:03:42,42.805,6.029,0.066,0.018,-0.007,100.0,116.0,98.0,13.3,1505.3,324.6,-0.7,1.9,2470.093,13.32,0.068,74.7
2019-06-14T02:06:43,42.805,6.029,0.029,0.004,-0.023,101.0,118.0,97.0,13.4,1505.3,327.6,-0.7,1.8,2470.123,13.32,0.029,82.2
2019-06-14T02:09:44,42.805,6.029,0.031,0.0,-0.037,102.0,118.0,97.0,13.4,1505.3,322.7,-0.7,1.8,2470.11,13.32,0.03,90.0
2019-06-14T02:12:45,42.805,6.029,0.04,0.003,-0.013,102.0,116.0,99.0,13.3,1505.3,325.3,-0.7,1.8,2470.124,13.32,0.04,85.7
2019-06-14T02:15:46,42.805,6.029,0.042,-0.003,-0.065,101.0,117.0,98.0,13.4,1505.3,327.3,-0.7,1.8,2470.108,13.32,0.042,94.1
2019-06-14T02:18:47,42.805,6.029,0.049,0.004,-0.035,101.0,116.0,98.0,13.4,1505.3,323.8,-0.7,1.8,2470.071,13.32,0.049,85.3
2019-06-14T02:21:48,42.805,6.029,0.027,-0.001,-0.03,101.0,118.0,97.0,13.3,1505.3,325.6,-0.7,1.8,2470.117,13.32,0.027,92.1
2019-06-14T02:24:49,42.805,6.029,0.039,0.012,-0.043,102.0,117.0,98.0,13.4,1505.3,326.5,-0.7,1.8,2470.071,13.32,0.04,72.9
2019-06-14T02:27:50,42.805,6.029,0.028,0.012,-0.041,101.0,119.0,97.0,13.4,1505.3,326.2,-0.7,1.8,2470.155,13.32,0.03,66.8
2019-06-14T02:30:51,42.805,6.029,0.045,0.001,-0.011,101.0,116.0,99.0,13.4,1505.3,323.0,-0.7,1.8,2470.086,13.32,0.045,88.7
2019-06-14T02:33:52,42.805,6.029,0.017,0.005,-0.036,101.0,118.0,97.0,13.4,1505.3,324.4,-0.7,1.8,2470.081,13.32,0.017,73.6
2019-06-14T02:36:53,42.805,6.029,0.06,-0.005,-0.04,101.0,118.0,98.0,13.4,1505.3,325.7,-0.8,1.8,2470.118,13.32,0.06,94.8
2019-06-14T02:39:54,42.805,6.029,0.022,0.006,-0.02,102.0,116.0,98.0,13.3,1505.3,327.8,-0.7,1.9,2470.073,13.32,0.022,74.7
2019-06-14T02:42:55,42.805,6.029,0.048,0.014,-0.008,101.0,117.0,97.0,13.4,1505.3,324.9,-0.7,1.9,2470.151,13.32,0.05,73.7
2019-06-14T02:45:56,42.805,6.029,0.056,0.009,-0.014,100.0,113.0,97.0,13.4,1505.3,324.4,-0.7,1.8,2470.134,13.32,0.056,80.9
2019-06-14T02:48:57,42.805,6.029,0.033,0.026,-0.021,102.0,119.0,96.0,13.4,1505.3,324.7,-0.7,1.9,2470.139,13.32,0.042,51.8
2019-06-14T02:51:58,42.805,6.029,0.029,0.014,-0.031,101.0,118.0,98.0,13.4,1505.3,324.3,-0.7,1.8,2470.149,13.32,0.032,64.2
2019-06-14T02:54:59,42.805,6.029,0.052,0.005,-0.036,101.0,122.0,98.0,13.4,1505.3,324.3,-0.7,1.9,2470.126,13.32,0.052,84.5
2019-06-14T02:58:00,42.805,6.029,0.036,0.022,0.006,102.0,117.0,97.0,13.4,1505.3,326.0,-0.7,1.8,2470.126,13.32,0.042,58.6
2019-06-14T03:01:01,42.805,6.029,0.057,0.0,0.012,101.0,123.0,97.0,13.3,1505.3,323.2,-0.7,1.9,2470.169,13.32,0.057,90.0
2019-06-14T03:04:02,42.805,6.029,0.035,0.014,0.001,102.0,115.0,98.0,13.4,1505.3,325.8,-0.8,1.8,2470.125,13.32,0.037,68.2
2019-06-14T03:07:03,42.805,6.029,0.015,-0.002,-0.041,102.0,119.0,96.0,13.4,1505.3,325.0,-0.7,1.8,2470.119,13.32,0.015,97.6
2019-06-14T03:10:04,42.805,6.029,0.058,0.0,-0.023,102.0,116.0,98.0,13.4,1505.3,326.0,-0.8,1.9,2470.154,13.32,0.057,90.0
2019-06-14T03:13:05,42.805,6.029,0.026,-0.001,-0.076,102.0,117.0,97.0,13.3,1505.3,325.4,-0.8,1.8,2470.119,13.32,0.026,92.2
2019-06-14T03:16:06,42.805,6.029,0.05,0.009,-0.02,102.0,118.0,98.0,13.4,1505.3,326.6,-0.8,1.8,2470.119,13.32,0.05,79.8
2019-06-14T03:19:07,42.805,6.029,0.058,0.007,-0.034,101.0,116.0,98.0,13.4,1505.3,325.6,-0.7,1.9,2470.104,13.32,0.058,83.1
2019-06-14T03:22:08,42.805,6.029,0.043,0.012,-0.028,103.0,116.0,97.0,13.4,1505.3,324.0,-0.7,1.9,2470.116,13.32,0.044,74.4
2019-06-14T03:25:09,42.805,6.029,0.045,0.024,0.003,101.0,117.0,98.0,13.4,1505.3,325.7,-0.7,1.8,2470.144,13.32,0.051,61.9
2019-06-14T03:28:10,42.805,6.029,0.022,-0.01,-0.02,102.0,119.0,98.0,13.4,1505.3,325.1,-0.7,1.9,2470.132,13.32,0.024,114.4
2019-06-14T03:31:11,42.805,6.029,0.039,0.005,-0.046,102.0,117.0,98.0,13.4,1505.3,324.7,-0.7,1.9,2470.129,13.32,0.039,82.7
2019-06-14T03:34:12,42.805,6.029,0.063,-0.01,-0.012,100.0,116.0,97.0,13.3,1505.3,324.5,-0.7,1.9,2470.168,13.32,0.063,99.0
2019-06-14T03:37:13,42.805,6.029,0.053,0.013,-0.02,102.0,118.0,97.0,13.4,1505.3,326.5,-0.7,1.8,2470.143,13.32,0.054,76.2
2019-06-14T03:40:14,42.805,6.029,0.03,0.0,-0.049,102.0,117.0,97.0,13.4,1505.3,326.9,-0.7,1.8,2470.138,13.32,0.03,90.0
2019-06-14T03:43:15,42.805,6.029,0.021,0.001,-0.056,102.0,116.0,98.0,13.3,1505.3,326.2,-0.7,1.8,2470.132,13.32,0.021,87.3
2019-06-14T03:46:16,42.805,6.029,0.054,0.005,-0.012,101.0,114.0,98.0,13.4,1505.3,323.8,-0.7,1.8,2470.143,13.32,0.054,84.7
2019-06-14T03:49:17,42.805,6.029,0.036,-0.003,-0.03,100.0,117.0,99.0,13.4,1505.3,325.8,-0.8,1.8,2470.143,13.32,0.036,94.8
2019-06-14T03:52:18,42.805,6.029,0.06,0.003,0.018,100.0,115.0,99.0,13.4,1505.3,324.9,-0.7,1.9,2470.171,13.32,0.06,87.1
2019-06-14T03:55:19,42.805,6.029,0.057,0.02,-0.011,101.0,115.0,98.0,13.4,1505.3,327.7,-0.7,1.9,2470.146,13.32,0.06,70.7
2019-06-14T03:58:20,42.805,6.029,0.027,-0.008,0.004,101.0,114.0,97.0,13.4,1505.3,325.8,-0.8,1.8,2470.186,13.32,0.028,106.5
2019-06-14T04:01:21,42.805,6.029,0.06,0.001,-0.009,102.0,115.0,98.0,13.4,1505.3,324.3,-0.8,1.9,2470.16,13.32,0.06,89.0
2019-06-14T04:04:22,42.805,6.029,0.017,-0.003,-0.039,101.0,112.0,98.0,13.4,1505.3,323.6,-0.7,1.8,2470.142,13.32,0.017,100.0
2019-06-14T04:07:23,42.805,6.029,0.033,0.01,0.002,101.0,110.0,98.0,13.4,1505.3,325.2,-0.7,1.8,2470.169,13.32,0.034,73.1
2019-06-14T04:10:24,42.805,6.029,0.032,0.007,-0.001,100.0,114.0,98.0,13.4,1505.3,326.4,-0.7,1.9,2470.157,13.32,0.032,77.7
2019-06-14T04:13:25,42.805,6.029,0.044,0.0,-0.031,100.0,114.0,98.0,13.4,1505.3,323.0,-0.7,1.9,2470.163,13.32,0.044,90.0
2019-06-14T04:16:26,42.805,6.029,0.047,0.008,-0.017,102.0,118.0,98.0,13.4,1505.3,325.6,-0.7,1.9,2470.133,13.32,0.047,80.3
2019-06-14T04:19:27,42.805,6.029,0.041,0.022,-0.027,100.0,118.0,98.0,13.4,1505.3,324.6,-0.8,1.8,2470.142,13.32,0.046,61.8
2019-06-14T04:22:28,42.805,6.029,0.034,-0.011,-0.033,101.0,114.0,97.0,13.4,1505.3,327.1,-0.7,1.8,2470.202,13.32,0.035,107.9
2019-06-14T04:25:29,42.805,6.029,0.025,0.011,-0.028,100.0,116.0,98.0,13.4,1505.3,326.2,-0.7,1.8,2470.223,13.32,0.027,66.3
2019-06-14T04:28:30,42.805,6.029,0.041,-0.002,-0.03,100.0,114.0,97.0,13.4,1505.3,324.9,-0.8,1.9,2470.146,13.32,0.041,92.8
2019-06-14T04:31:31,42.805,6.029,0.063,-0.002,-0.008,103.0,115.0,98.0,13.4,1505.3,324.1,-0.8,1.8,2470.174,13.32,0.063,91.8
2019-06-14T04:34:32,42.805,6.029,0.036,0.006,-0.027,102.0,116.0,98.0,13.3,1505.3,324.6,-0.7,1.8,2470.176,13.32,0.036,80.5
2019-06-14T04:37:33,42.805,6.029,0.046,0.004,-0.046,100.0,114.0,97.0,13.4,1505.3,326.1,-0.7,1.8,2470.155,13.32,0.046,85.0
2019-06-14T04:40:34,42.805,6.029,0.047,0.007,-0.031,98.0,116.0,97.0,13.4,1505.3,326.4,-0.7,1.8,2470.185,13.32,0.047,81.5
2019-06-14T04:43:35,42.805,6.029,0.029,-0.003,-0.02,101.0,116.0,98.0,13.4,1505.3,327.6,-0.7,1.9,2470.159,13.32,0.029,95.9
2019-06-14T04:46:36,42.805,6.029,0.048,0.0,-0.009,101.0,115.0,97.0,13.4,1505.3,324.5,-0.7,1.8,2470.133,13.32,0.048,90.0
2019-06-14T04:49:37,42.805,6.029,0.059,0.009,-0.013,101.0,115.0,98.0,13.4,1505.3,326.3,-0.8,1.8,2470.137,13.32,0.059,81.3
2019-06-14T04:52:38,42.805,6.029,0.038,-0.012,-0.001,100.0,114.0,98.0,13.4,1505.3,326.6,-0.7,1.9,2470.117,13.32,0.039,107.5
2019-06-14T04:55:39,42.805,6.029,0.05,0.0,-0.021,100.0,116.0,98.0,13.3,1505.3,326.5,-0.7,1.8,2470.162,13.32,0.05,90.0
2019-06-14T04:58:40,42.805,6.029,0.021,0.011,-0.02,101.0,116.0,97.0,13.3,1505.3,325.9,-0.7,1.8,2470.173,13.32,0.023,62.4
2019-06-14T05:01:41,42.805,6.029,0.045,0.017,-0.023,101.0,114.0,99.0,13.3,1505.3,323.2,-0.8,1.8,2470.161,13.32,0.048,69.3
2019-06-14T05:04:42,42.805,6.029,0.067,-0.004,-0.034,102.0,113.0,98.0,13.4,1505.3,326.4,-0.8,1.9,2470.173,13.32,0.067,93.4
2019-06-14T05:07:43,42.805,6.029,0.055,-0.011,-0.022,101.0,113.0,98.0,13.3,1505.3,328.0,-0.7,1.8,2470.187,13.32,0.056,101.3
2019-06-14T05:10:44,42.805,6.029,0.025,-0.003,-0.023,100.0,114.0,97.0,13.4,1505.3,323.2,-0.7,1.8,2470.161,13.32,0.025,96.8
2019-06-14T05:13:45,42.805,6.029,0.048,0.018,-0.034,102.0,112.0,97.0,13.3,1505.3,326.4,-0.7,1.8,2470.146,13.32,0.051,69.4
2019-06-14T05:16:46,42.805,6.029,0.052,0.003,-0.023,101.0,113.0,98.0,13.4,1505.3,324.5,-0.7,1.8,2470.126,13.32,0.052,86.7
2019-06-14T05:19:47,42.805,6.029,0.056,0.014,0.017,101.0,115.0,98.0,13.3,1505.3,325.8,-0.7,1.8,2470.144,13.32,0.057,76.0
2019-06-14T05:22:48,42.805,6.029,0.056,-0.007,-0.052,101.0,113.0,99.0,13.4,1505.3,326.6,-0.7,1.8,2470.123,13.32,0.056,97.1
2019-06-14T05:25:49,42.805,6.029,0.051,0.005,-0.054,102.0,114.0,97.0,13.4,1505.3,324.0,-0.7,1.8,2470.114,13.32,0.051,84.4
2019-06-14T05:28:50,42.805,6.029,0.05,0.002,-0.012,101.0,110.0,98.0,13.3,1505.3,324.0,-0.7,1.9,2470.157,13.32,0.05,87.7
2019-06-14T05:31:51,42.805,6.029,0.028,0.018,-0.02,102.0,114.0,97.0,13.4,1505.3,328.1,-0.7,1.8,2470.201,13.32,0.033,57.3
2019-06-14T05:34:52,42.805,6.029,0.057,-0.012,-0.012,100.0,110.0,98.0,13.4,1505.3,326.1,-0.7,1.8,2470.209,13.32,0.058,101.9
2019-06-14T05:37:53,42.805,6.029,0.033,-0.001,-0.02,101.0,114.0,99.0,13.4,1505.3,325.8,-0.7,1.9,2470.166,13.32,0.033,91.7
2019-06-14T05:40:54,42.805,6.029,0.047,0.005,0.001,101.0,112.0,98.0,13.4,1505.3,327.4,-0.7,1.8,2470.131,13.32,0.047,83.9
2019-06-14T05:43:55,42.805,6.029,0.038,0.008,-0.034,101.0,117.0,98.0,13.4,1505.3,324.9,-0.8,1.9,2470.138,13.32,0.038,78.1
2019-06-14T05:46:56,42.805,6.029,0.045,-0.022,-0.04,101.0,111.0,99.0,13.3,1505.3,325.8,-0.8,1.9,2470.157,13.32,0.05,116.1
2019-06-14T05:49:57,42.805,6.029,0.053,0.001,-0.01,102.0,113.0,98.0,13.3,1505.3,326.6,-0.7,1.9,2470.145,13.32,0.053,88.9
2019-06-14T05:52:58,42.805,6.029,0.028,0.007,-0.013,102.0,114.0,97.0,13.4,1505.3,324.0,-0.7,1.8,2470.208,13.32,0.028,76.0
2019-06-14T05:55:59,42.805,6.029,0.044,0.006,-0.006,102.0,111.0,98.0,13.4,1505.3,326.3,-0.8,1.8,2470.124,13.32,0.044,82.2
2019-06-14T05:59:00,42.805,6.029,0.061,-0.013,-0.023,102.0,114.0,98.0,13.4,1505.3,327.5,-0.7,1.8,2470.177,13.32,0.062,102.0
2019-06-14T06:02:01,42.805,6.029,0.037,0.0,-0.046,101.0,112.0,97.0,13.3,1505.3,323.3,-0.7,1.8,2470.18,13.32,0.037,90.0
2019-06-14T06:05:02,42.805,6.029,0.062,0.005,-0.016,101.0,112.0,98.0,13.3,1505.3,327.9,-0.7,1.9,2470.162,13.32,0.062,85.4
2019-06-14T06:08:03,42.805,6.029,0.056,-0.001,-0.025,102.0,111.0,98.0,13.4,1505.3,326.0,-0.7,1.8,2470.147,13.32,0.056,91.0
2019-06-14T06:11:04,42.805,6.029,0.06,-0.003,-0.017,100.0,114.0,99.0,13.3,1505.3,325.2,-0.8,1.9,2470.118,13.32,0.06,92.9
2019-06-14T06:14:05,42.805,6.029,0.059,0.006,-0.008,101.0,113.0,99.0,13.4,1505.3,327.3,-0.7,1.8,2470.133,13.32,0.059,84.2
2019-06-14T06:17:06,42.805,6.029,0.054,-0.007,-0.011,103.0,113.0,97.0,13.4,1505.3,325.3,-0.7,1.9,2470.14,13.32,0.054,97.4
2019-06-14T06:20:07,42.805,6.029,0.07,0.002,-0.024,102.0,111.0,98.0,13.4,1505.3,326.1,-0.7,1.8,2470.125,13.32,0.07,88.4
2019-06-14T06:23:08,42.805,6.029,0.055,0.003,-0.023,101.0,110.0,98.0,13.3,1505.3,324.5,-0.7,1.9,2470.127,13.32,0.055,86.9
2019-06-14T06:26:09,42.805,6.029,0.049,0.01,-0.036,101.0,114.0,98.0,13.4,1505.3,324.5,-0.8,1.8,2470.153,13.32,0.05,78.5
2019-06-14T06:29:10,42.805,6.029,0.031,0.005,-0.024,101.0,114.0,97.0,13.3,1505.3,326.4,-0.7,1.9,2470.155,13.32,0.031,80.8
2019-06-14T06:32:11,42.805,6.029,0.064,0.003,0.009,101.0,112.0,98.0,13.4,1505.3,327.9,-0.8,1.8,2470.143,13.32,0.064,87.3
2019-06-14T06:35:12,42.805,6.029,0.054,-0.027,-0.034,102.0,107.0,97.0,13.3,1505.3,327.6,-0.7,1.8,2470.185,13.32,0.06,116.6
2019-06-14T06:38:13,42.805,6.029,0.053,-0.017,0.009,101.0,113.0,97.0,13.4,1505.3,325.1,-0.8,1.8,2470.113,13.32,0.055,107.8
2019-06-14T06:41:14,42.805,6.029,0.049,0.015,-0.017,100.0,111.0,98.0,13.4,1505.3,322.4,-0.8,1.8,2470.156,13.32,0.051,73.0
2019-06-14T06:44:15,42.805,6.029,0.049,-0.002,-0.017,102.0,111.0,98.0,13.4,1505.3,326.9,-0.7,1.8,2470.117,13.32,0.049,92.3
2019-06-14T06:47:16,42.805,6.029,0.063,0.0,-0.003,101.0,112.0,99.0,13.4,1505.3,324.9,-0.7,1.9,2470.134,13.32,0.062,90.0
2019-06-14T06:50:17,42.805,6.029,0.056,0.004,-0.023,101.0,112.0,98.0,13.4,1505.3,325.1,-0.8,1.8,2470.154,13.32,0.056,85.9
2019-06-14T06:53:18,42.805,6.029,0.064,-0.011,-0.05,102.0,108.0,98.0,13.4,1505.3,327.6,-0.7,1.9,2470.134,13.32,0.064,99.8
2019-06-14T06:56:19,42.805,6.029,0.058,-0.02,-0.034,103.0,110.0,98.0,13.4,1505.3,324.2,-0.7,1.8,2470.139,13.32,0.061,109.0
2019-06-14T06:59:20,42.805,6.029,0.065,-0.011,-0.018,101.0,108.0,97.0,13.4,1505.3,324.5,-0.7,1.8,2470.142,13.32,0.065,99.6
2019-06-14T07:02:21,42.805,6.029,0.064,0.015,0.006,101.0,107.0,98.0,13.3,1505.3,325.5,-0.8,1.9,2470.126,13.32,0.065,76.8
2019-06-14T07:05:22,42.805,6.029,0.049,-0.007,-0.026,100.0,112.0,97.0,13.4,1505.3,326.4,-0.7,1.8,2470.182,13.32,0.049,98.1
2019-06-14T07:08:23,42.805,6.029,0.035,0.004,-0.034,101.0,111.0,97.0,13.4,1505.3,327.2,-0.7,1.9,2470.151,13.32,0.035,83.5
2019-06-14T07:11:24,42.805,6.029,0.036,-0.011,-0.016,101.0,110.0,99.0,13.4,1505.3,322.9,-0.8,1.8,2470.089,13.32,0.037,107.0
2019-06-14T07:14:25,42.805,6.029,0.052,-0.014,-0.013,102.0,113.0,98.0,13.4,1505.3,326.5,-0.7,1.8,2470.098,13.32,0.053,105.1
2019-06-14T07:17:26,42.805,6.029,0.046,-0.031,-0.022,100.0,109.0,98.0,13.4,1505.3,325.9,-0.7,1.9,2470.139,13.32,0.055,124.0
2019-06-14T07:20:27,42.805,6.029,0.037,-0.006,0.0,101.0,112.0,98.0,13.4,1505.3,327.8,-0.8,1.8,2470.128,13.32,0.037,99.2
2019-06-14T07:23:28,42.805,6.029,0.054,-0.017,-0.043,102.0,112.0,98.0,13.4,1505.3,326.5,-0.8,1.8,2470.134,13.32,0.056,107.5
2019-06-14T07:26:29,42.805,6.029,0.04,0.015,-0.012,100.0,112.0,99.0,13.4,1505.3,323.6,-0.7,1.9,2470.091,13.32,0.042,69.4
2019-06-14T07:29:30,42.805,6.029,0.033,-0.004,-0.024,101.0,114.0,98.0,13.3,1505.3,326.3,-0.8,1.8,2470.104,13.32,0.033,96.9
2019-06-14T07:32:31,42.805,6.029,0.03,-0.006,-0.038,100.0,111.0,98.0,13.4,1505.3,325.8,-0.8,1.9,2470.128,13.32,0.03,101.3
2019-06-14T07:35:32,42.805,6.029,0.059,0.018,-0.029,102.0,114.0,97.0,13.4,1505.3,324.2,-0.7,1.8,2470.119,13.32,0.061,73.0
2019-06-14T07:38:33,42.805,6.029,0.067,-0.011,0.001,100.0,111.0,97.0,13.4,1505.3,323.1,-0.7,1.8,2470.107,13.32,0.067,99.3
2019-06-14T07:41:34,42.805,6.029,0.063,0.004,-0.018,101.0,111.0,97.0,13.4,1505.3,326.4,-0.8,1.9,2470.099,13.32,0.063,86.4
2019-06-14T07:44:35,42.805,6.029,0.046,0.01,-0.021,101.0,110.0,98.0,13.3,1505.3,325.1,-0.7,1.8,2470.084,13.32,0.047,77.7
2019-06-14T07:47:36,42.805,6.029,0.068,-0.003,0.001,100.0,111.0,98.0,13.4,1505.3,324.7,-0.8,1.9,2470.091,13.32,0.068,92.5
2019-06-14T07:50:37,42.805,6.029,0.048,-0.018,-0.003,101.0,113.0,97.0,13.4,1505.3,324.5,-0.7,1.8,2470.113,13.32,0.051,110.6
